Location: Springville
(37.3745°N, 89.2676°W)
Time: 14:47:32
(UTC+00:00)

GPS 2-04 Rocket1 - Pass Details

Date: 29 October 2020
Orbit: 417 x 546 km, 35.6° (Epoch: 03 December)

Event Time Altitude Azimuth Distance (km) Brightness Sun altitude
Rises 23:30:26 0° 237° (WSW) 2,582 7.8 -6.4°
Reaches altitude 10° 23:32:43 10° 228° (SW) 1,723 6.4 -6.8°
Maximum altitude 23:36:24 37° 161° (SSE) 826 3.7 -7.5°
Drops below altitude 10° 23:40:13 10° 93° (E) 1,785 4.8 -8.3°
Enters shadow 23:40:15 10° 93° (E) 1,799 4.8 -8.3°
